Location: Arclight Observatory
(36.5667°N, 87.3333°W)
Time: 11:58:34
(UTC-05:00)

Daily predictions for brighter satellites

Satellite Brightness Start Highest point End
(mag) Time Altitude Azimuth Time Altitude Azimuth Time Altitude Azimuth
Meteor 2-21 Rocket 4.5 19:43:48 10° S 19:49:59 74° E 19:56:09 10° N
Lacrosse 5 3.9 19:49:07 10° N 19:52:13 16° NNE 19:55:19 10° ENE
ATLAS 3B CENTAUR R/B 2.7 19:53:38 10° SSW 19:53:45 10° SSW 19:53:51 10° SSW
DELTA 2 R/B (1) 3.8 19:50:15 10° WNW 19:55:49 67° N 20:01:21 10° E
Cosmos 1461 3.4 19:52:15 10° NNW 19:56:04 38° NE 19:59:45 10° SE
Meteor 1-5 Rocket 4.1 19:51:50 10° S 19:57:07 70° E 20:02:32 10° NNE
Cosmos 1346 Rocket 3.1 19:54:16 10° N 19:58:06 46° ENE 20:01:56 10° SSE
Cosmos 2082 4.1 19:53:36 10° N 19:58:57 43° ENE 20:04:16 10° SE
Cosmos 2297 Rocket 3.0 19:54:00 10° N 19:59:05 33° ENE 20:04:09 10° SE
Cosmos 1025 Rocket 3.7 19:58:20 10° NNW 20:02:37 59° W 20:06:51 10° S
Meteor 2-15 4.4 19:56:55 10° N 20:02:57 68° E 20:08:58 10° SSE
Cosmos 1536 4.4 20:00:32 10° SSW 20:04:17 40° W 20:08:06 10° N
Meteor 2-14 Rocket 4.5 19:58:50 10° S 20:04:58 86° E 20:11:09 10° N
Meteor 2-15 Rocket 4.4 20:03:05 10° N 20:09:07 65° E 20:15:07 10° SSE
Cosmos 1626 Rocket 4.4 20:05:22 10° NNE 20:09:16 31° ENE 20:13:07 10° SE
Cosmos 1892 Rocket 3.7 20:05:18 10° N 20:09:48 83° W 20:14:17 10° S
Cosmos 1455 Rocket 3.0 20:06:52 10° S 20:11:11 85° E 20:15:33 10° N
Cosmos 2123 Rocket 3.9 20:11:56 10° N 20:18:08 74° E 20:24:17 10° SSE
Cosmos 1602 Rocket 4.1 20:14:26 10° N 20:18:38 39° E 20:22:29 12° SSE
RESURS DK-1 4.3 20:16:52 10° NNE 20:19:04 14° NE 20:20:28 12° ENE
Resurs 1-3 4.3 20:15:59 10° S 20:20:17 57° W 20:24:37 10° NNW
CZ-4 DEB 4.2 20:22:57 19° E 20:23:35 20° ENE 20:25:59 10° NNE
Cosmos 1743 4.3 20:26:39 18° E 20:26:39 18° E 20:29:15 10° NE
Cosmos 220 Rocket 4.2 20:25:18 10° N 20:29:23 47° ENE 20:31:56 21° SE
SL-24 R/B - RUBIN 2 4.3 20:24:47 10° SSW 20:30:29 81° ESE 20:36:55 10° NNE
Cosmos 1697 Rocket 2.8 20:27:44 10° S 20:33:11 52° ESE 20:38:39 10° NNE
OAO 2 Rocket 3.3 20:30:12 10° WSW 20:35:12 73° S 20:38:27 22° E
Resurs 01 Rocket 4.0 20:38:48 10° SSW 20:42:23 24° W 20:46:00 10° NW
NOSS 3-4 (A) 4.2 20:35:47 10° NW 20:42:48 64° WSW 20:50:12 10° SSE
NOSS 3-4 (C) 4.2 20:35:54 10° NW 20:42:56 65° WSW 20:50:20 10° SSE
Cosmos 1153 Rocket 4.4 20:39:04 10° S 20:45:15 80° E 20:51:25 10° N
ALOS 3.1 20:42:51 10° S 20:47:23 51° W 20:51:57 10° NNW
H-2A R/B 3.6 20:46:50 10° S 20:50:35 49° W 20:54:25 10° NNW
Cosmos 1975 3.2 20:46:56 10° SSW 20:51:00 66° W 20:55:05 10° N
USA 186 3.0 20:52:38 13° SSW 20:55:14 38° W 20:58:02 10° NNW
Cosmos 1980 Rocket 2.3 20:50:50 10° S 20:56:14 48° ESE 21:01:42 10° NNE
Cosmos 1447 Rocket 4.5 20:51:18 10° N 20:57:39 87° E 21:03:35 12° S
Cosmos 1802 Rocket 4.2 20:55:57 18° SSE 21:00:38 52° E 21:06:50 10° NNE
Lacrosse 5 rocket 1.2 20:57:17 10° NW 21:00:56 65° SW 21:01:42 48° S
Cosmos 2298 Rocket 3.9 20:56:19 10° NNW 21:01:39 77° ENE 21:04:08 33° SSE
Envisat 3.2 21:00:25 36° SE 21:02:08 53° ENE 21:07:04 10° N
OTV 4 1.8 21:03:19 10° W 21:05:33 31° SW 21:05:33 31° SW
Iridium 4 Rocket 3.6 21:02:57 10° N 21:07:54 67° W 21:11:35 15° S
Cosmos 1937 Rocket 3.6 21:02:44 10° N 21:07:56 56° ENE 21:09:16 43° ESE
Cosmos 1726 Rocket 4.4 21:14:23 34° NE 21:14:23 34° NE 21:17:24 10° NNE
Cosmos 2016 Rocket 4.0 21:11:10 34° SSE 21:13:34 54° E 21:19:33 10° NNE
H-2A R/B 4.2 21:17:51 11° NE 21:17:51 11° NE 21:18:20 10° NE
Tiangong 1 2.7 21:17:02 10° NW 21:19:22 30° N 21:19:22 30° N
Cosmos 990 Rocket 4.1 21:15:17 10° N 21:20:25 52° ENE 21:20:53 51° E
Cosmos 972 Rocket 4.4 21:16:07 10° NNW 21:22:13 82° ENE 21:24:52 39° SSE
Cosmos 2263 Rocket 4.3 21:23:19 10° NNE 21:25:29 12° NE 21:25:29 12° NE
Cosmos 2173 Rocket 4.0 21:19:33 10° S 21:25:56 85° W 21:32:19 10° N
Cosmos 1939 Rocket 3.0 21:25:53 65° SSW 21:26:21 73° W 21:30:30 10° NNW
Cosmos 2227 Rocket 3.9 21:22:55 10° NW 21:27:41 29° WSW 21:32:24 10° SSW
Cosmos 2150 Rocket 4.1 21:22:33 10° NNW 21:27:41 70° WSW 21:29:13 45° S
Cosmos 2322 Rocket 4.0 21:32:37 17° NE 21:32:37 17° NE 21:34:05 10° NE
Cosmos 1825 Rocket 3.4 21:25:24 10° N 21:29:39 79° NE 21:29:39 79° NE
ERS-1 Rocket 3.3 21:28:09 34° SSW 21:30:12 61° WSW 21:35:11 10° NNW
Cosmos 2098 Rocket 4.1 21:29:39 47° SE 21:31:13 58° E 21:37:07 10° NNE
Meteor 1-21 4.2 21:29:18 10° N 21:35:05 75° E 21:35:57 63° SE
SPOT 1/Viking Rocket 4.3 21:36:07 37° NE 21:36:07 37° NE 21:40:16 10° N
Lacrosse 5 1.7 21:30:54 10° NW 21:35:58 74° NE 21:36:04 74° ENE
YAOGAN 6 4.4 21:38:50 25° N 21:38:50 25° N 21:40:33 10° N
Cosmos 1340 3.7 21:34:18 10° N 21:36:49 40° N 21:36:49 40° N
SPOT 5 2.8 21:39:47 77° ENE 21:39:47 77° ENE 21:44:33 10° N
Cosmos 2100 Rocket 4.5 21:33:31 10° SSW 21:39:42 60° W 21:45:53 10° N
H-2A R/B 2.4 21:40:46 59° NNW 21:40:46 59° NNW 21:44:10 10° NNW
Cosmos 1953 Rocket 3.9 21:35:41 10° N 21:39:18 57° NNE 21:39:18 57° NNE
Cosmos 2360 4.1 21:38:33 42° SSW 21:40:35 83° ESE 21:46:21 10° NNE
Meteor 2-9 Rocket 4.3 21:41:32 56° ENE 21:41:32 56° ENE 21:46:09 10° NNE
Cosmos 1864 Rocket 4.4 21:41:44 59° E 21:41:44 59° E 21:47:38 10° NNE
DELTA 2 R/B (1) 3.6 21:36:49 10° WNW 21:42:20 65° SSW 21:42:25 65° SSW
Cosmos 967 Rocket 4.4 21:36:13 10° NNW 21:42:31 63° ENE 21:43:06 60° E
Cosmos 2297 Rocket 3.7 21:38:08 10° NW 21:43:00 30° WSW 21:46:11 18° SSW
Cosmos 1763 Rocket 3.5 21:41:43 41° SSW 21:43:28 75° WNW 21:48:33 10° NNE
Cosmos 1898 Rocket 4.5 21:41:37 10° NNW 21:46:35 43° WSW 21:48:07 34° SW
Cosmos 2227 4.2 21:44:26 10° NNW 21:50:02 71° NE 21:50:02 71° NE
Tsikada Rocket 4.1 21:45:10 10° N 21:51:23 60° ENE 21:51:23 60° ENE
MetOp-A 4.0 21:54:40 85° WNW 21:54:40 85° WNW 21:59:56 10° NNW
RESURS DK-1 3.7 21:53:24 10° NW 21:56:25 38° WNW 21:56:25 38° WNW
USA 215 4.3 22:03:14 31° NE 22:04:34 33° NNE 22:10:16 10° NNW
Cosmos 841 Rocket 4.1 22:04:54 44° WSW 22:06:03 52° WNW 22:11:10 10° N
Terra 3.9 22:11:26 18° NNE 22:11:26 18° NNE 22:12:58 10° N
Cosmos 1725 Rocket 4.0 22:12:55 73° WSW 22:13:12 74° W 22:19:26 10° N
Milstar 3 Cent rocket 4.1 22:03:14 10° W 22:21:02 51° SSW 22:22:31 48° S
SL-16 R/B 3.5 22:28:05 32° NNE 22:28:05 32° NNE 22:31:04 10° NNE
ARGOS 4.1 22:35:03 44° NW 22:35:03 44° NW 22:38:52 10° NNW
BREEZE-M DEB (TANK) 4.4 22:28:57 10° W 22:37:35 37° NNW 22:38:01 36° NNW
Cosmos 1980 Rocket 4.4 22:36:08 10° WSW 22:40:30 22° WNW 22:44:53 10° N
H-2A R/B 4.0 22:58:30 25° NNW 22:58:30 25° NNW 23:00:29 10° NNW
Cosmos 2263 Rocket 3.9 23:04:37 10° NNW 23:07:11 28° NNW 23:07:11 28° NNW
Cosmos 2322 Rocket 4.0 23:14:22 27° NW 23:14:22 27° NW 23:18:00 10° N
